IRIDIUM 33 DEB, 33866

Orbit data source: Space-Track

IRIDIUM 33 DEB, 33866 is space debris in LEO originally from a launch on Sun, 14 Sep 1997 UTC launched from the Tyuratam Missile And Space Complex (TTMTR). The debris from Iridium 33, an American commercial communications satellite, has been tracked extensively since its accidental collision with the defunct Russian satellite Cosmos 2251 in 2009. This event, occurring at high speed in low Earth orbit (LEO), generated thousands of pieces of space debris, significantly increasing the risk of further collisions. The Iridium 33 debris cloud has impacted space traffic management and orbital debris mitigation strategies, making it a subject of ongoing study in space situational awareness.

Loading next visibility...
Identifier
33866, 1997-051AK
Orbit
LEO
Country
Flag of USUS
Related business
Manufacturer
Unknown
Mission
Spacecraft
Bus & Motor
Unknown
Mass
Unknown
Launch date (UTC)
1997-09-14 (28 years ago)
Launch vehicle
Unknown
Launch site
Tyuratam Missile And Space Complex (TTMTR)
Object type
Payload
Rocket body
Debris
Shape & HBR
Unknown shape, 0.2 m
Radar Cross Section
Small (<0.1 m²)

Expand to show TLE details & history
Last TLE update: 19 hours ago

TLE from 19 hours ago
0 IRIDIUM 33 DEB
1 33866U 97051AK  26066.21443995  .00004090  00000-0  16100-2 0  9998
2 33866  86.2994  57.2649 0110666 250.6620 123.8829 14.25724109880149
Epoch: 2026-03-07T05:08Z
TLE epoch observation values (Epoch: 2026-03-07T05:08:47.611Z)
Latitude
15.53244°
Longitude
176.15181°
Altitude
853.344 km
Speed
7.404 km/s
True Right ascension
03h 53m 09s
True Declination
15° 26' 42"
Sunlit
Object was in daylight at epoch
Visualization orbit readout
Latitude
Unknown
Longitude
Unknown
Altitude
Unknown
Speed
Unknown
Apparent Right ascension
Unknown
Apparent Declination
Unknown
Sunlit
N/A
Visualization observer readout
Local Sidereal Time
04:32:28
Azimuth
Unknown
Elevation
Unknown
Doppler factor
Unknown
Orbital elements
Apogee altitude
882.508 km
Perigee altitude
723.566 km
Semi-major axis
7,181.174 km
Eccentricity
0.01107
Inclination
86.2994°
RAAN
57.2649°
Arg. of periapsis
250.662°
True anomaly
124.92756°
Mean anomaly
123.8829°
Eccentric anomaly
124.40604°
Mean motion
3.56656 °/min
Orbital period
100.94 mins
BSTAR
0.00161
Loading maneuver chart data...
Computing Atmospheric mass density...

Documentation

Showing up to 5 results
|